FLOCK 4BE-19 (60563 NORAD) Tracking and Keplerian Element Data

This shows tracking and keplerian element data for the satellite.

Feedback or suggestion? Click here.




ElementValue
Catalog60563
NameFLOCK 4BE-19
Epoch Orbit865
Epoch Day286.7980039
Epoch Year2024
RAAN1.5256
Inclination97.4349
Eccentricity0.0005417
Argument of Perigee316.5742
Mean Anonmoly43.5066
Mean Motion15.20679784
Decay Rate0.00021824
L11 60563U 24149CZ 24286.79800390 .00021824 00000+0 99410-3 0 9990
L22 60563 97.4349 1.5256 0005417 316.5742 43.5066 15.20679784 8654



Live tracking and technical data element details for FLOCK 4BE-19 (NORAD 60563). FLOCK 4BE-19 can be tracked NOW for your location showing map with azimuth and elevation plus other details from your city location.







IsCatalogInMostPopularTable: catalog: 60563, numindb: 7
Update: records affected: 1



GetName: 60563 FLOCK 4BE-19

Hit Count: updated at: Wed, 04 Dec 2024 18:59:36 GMT